Tracking 35055 objects as of 19-Aug-2026
HD Live streaming from Space Station
objects crossing your sky now

STARLINK-31003

Track STARLINK-31003 now!
10-day predictions
STARLINK-31003 is classified as:


NORAD ID: 58520
Int'l Code: 2023-191N
Launch date: December 7, 2023
Source: United States (US)
Launch site: AIR FORCE EASTERN TEST RANGE (AFETR)
Your satellite tracking list
Your tracking list is empty




NASA's NSSDC Master Catalog

Two Line Element Set (TLE):
1 58520U 23191N   26230.57038721  .00005214  00000-0  19877-3 0  9999
2 58520  43.0024 268.8181 0001785 276.6253  83.4396 15.27595603150238
Source of the keplerian elements: AFSPC